Time,TemperatureF,DewpointF,PressureIn,WindDirection,WindDirectionDegrees,WindSpeedMPH,WindSpeedGustMPH,Humidity,HourlyPrecipIn,Conditions,Clouds,dailyrainin,SoftwareType,DateUTC
2013-03-23 00:02:00,42.6,29.7,30.01,ENE,77,2.3,2.3,60,0.00,BKN,FEW,0.00,WeatherDisplay:10.37,2013-03-23 06:02:00,
2013-03-23 00:07:00,42.6,29.3,30.01,East,80,2.3,2.3,59,0.00,BKN,FEW,0.00,WeatherDisplay:10.37,2013-03-23 06:07:00,
2013-03-23 00:12:00,42.5,30.4,30.01,East,80,1.1,0.0,62,0.00,BKN,FEW,0.00,WeatherDisplay:10.37,2013-03-23 06:12:00,
2013-03-23 00:17:00,42.5,29.6,30.00,ENE,61,4.6,4.6,60,0.00,BKN,FEW,0.00,WeatherDisplay:10.37,2013-03-23 06:17:00,
2013-03-23 00:22:00,42.5,30.0,30.00,ENE,61,3.5,3.5,61,0.00,BKN,FEW,0.00,WeatherDisplay:10.37,2013-03-23 06:22:00,
2013-03-23 00:28:00,42.5,30.4,29.99,East,101,3.5,3.5,62,0.00,BKN,FEW,0.00,WeatherDisplay:10.37,2013-03-23 06:28:00,
2013-03-23 00:33:00,42.4,30.3,29.99,ENE,60,3.5,3.5,62,0.00,SCT,FEW,0.00,WeatherDisplay:10.37,2013-03-23 06:33:00,
2013-03-23 00:38:00,42.4,29.5,29.99,ENE,66,3.5,3.5,60,0.00,SCT,FEW,0.00,WeatherDisplay:10.37,2013-03-23 06:38:00,
2013-03-23 00:43:00,42.4,29.5,29.99,NE,46,5.4,5.4,60,0.00,SCT,FEW,0.00,WeatherDisplay:10.37,2013-03-23 06:43:00,
2013-03-23 00:48:00,42.4,29.5,30.00,ENE,67,2.3,2.3,60,0.00,SCT,FEW,0.00,WeatherDisplay:10.37,2013-03-23 06:48:00,
2013-03-23 00:53:00,42.4,29.5,30.00,NE,56,3.5,3.5,60,0.00,SCT,FEW,0.00,WeatherDisplay:10.37,2013-03-23 06:53:00,
2013-03-23 00:58:00,42.3,29.8,29.99,ENE,76,4.6,4.6,61,0.00,SCT,FEW,0.00,WeatherDisplay:10.37,2013-03-23 06:58:00,
2013-03-23 01:03:00,42.3,30.2,29.99,ESE,112,1.1,1.1,62,0.00,OVC,FEW,0.00,WeatherDisplay:10.37,2013-03-23 07:03:00,
2013-03-23 01:08:00,42.3,29.8,29.99,East,83,2.3,2.3,61,0.00,OVC,FEW,0.00,WeatherDisplay:10.37,2013-03-23 07:08:00,
2013-03-23 01:13:00,42.3,30.6,29.98,ENE,76,2.3,2.3,63,0.00,OVC,FEW,0.00,WeatherDisplay:10.37,2013-03-23 07:13:00,
2013-03-23 01:18:00,42.2,30.1,29.97,ESE,120,6.9,6.9,62,0.00,OVC,FEW,0.00,WeatherDisplay:10.37,2013-03-23 07:18:00,
2013-03-23 01:23:00,42.2,29.7,29.98,ENE,59,3.5,3.5,61,0.00,OVC,FEW,0.00,WeatherDisplay:10.37,2013-03-23 07:23:00,
2013-03-23 01:28:00,42.1,30.0,29.98,NE,49,1.1,1.1,62,0.00,OVC,FEW,0.00,WeatherDisplay:10.37,2013-03-23 07:28:00,
2013-03-23 01:33:00,42.1,30.0,29.99,NE,51,2.3,2.3,62,0.00,OVC,FEW,0.00,WeatherDisplay:10.37,2013-03-23 07:33:00,
2013-03-23 01:38:00,42.2,30.5,29.99,NE,51,1.1,1.1,63,0.00,OVC,FEW,0.00,WeatherDisplay:10.37,2013-03-23 07:38:00,
2013-03-23 01:43:00,42.2,30.5,29.99,East,82,1.1,1.1,63,0.00,OVC,FEW,0.00,WeatherDisplay:10.37,2013-03-23 07:43:00,
2013-03-23 01:48:00,42.2,30.5,29.99,East,82,0.0,0.0,63,0.00,OVC,FEW,0.00,WeatherDisplay:10.37,2013-03-23 07:48:00,
2013-03-23 01:53:00,42.1,30.4,29.98,ENE,77,2.3,2.3,63,0.00,OVC,FEW,0.00,WeatherDisplay:10.37,2013-03-23 07:53:00,
2013-03-23 01:58:00,42.1,30.4,29.98,ENE,73,2.3,2.3,63,0.00,OVC,FEW,0.00,WeatherDisplay:10.37,2013-03-23 07:58:00,
2013-03-23 02:03:00,42.1,30.8,29.97,ENE,73,1.1,1.1,64,0.00,BKN,FEW,0.00,WeatherDisplay:10.37,2013-03-23 08:03:00,
2013-03-23 02:08:00,42.0,30.3,29.97,ENE,71,2.3,2.3,63,0.00,BKN,FEW,0.00,WeatherDisplay:10.37,2013-03-23 08:08:00,
2013-03-23 02:13:00,42.0,30.7,29.98,NE,55,0.0,0.0,64,0.00,BKN,FEW,0.00,WeatherDisplay:10.37,2013-03-23 08:13:00,
2013-03-23 02:18:00,42.1,30.8,29.98,North,5,2.3,2.3,64,0.00,BKN,FEW,0.00,WeatherDisplay:10.37,2013-03-23 08:18:00,
2013-03-23 02:23:00,42.1,31.6,29.98,North,5,0.0,0.0,66,0.00,BKN,FEW,0.00,WeatherDisplay:10.37,2013-03-23 08:23:00,
2013-03-23 02:28:00,42.1,31.2,29.97,NE,47,3.5,3.5,65,0.00,BKN,FEW,0.00,WeatherDisplay:10.37,2013-03-23 08:28:00,
2013-03-23 02:33:00,42.1,31.6,29.97,NE,50,1.1,1.1,66,0.00,BKN,FEW,0.00,WeatherDisplay:10.37,2013-03-23 08:33:00,
2013-03-23 02:38:00,42.1,31.6,29.97,NE,53,0.0,0.0,66,0.00,BKN,FEW,0.00,WeatherDisplay:10.37,2013-03-23 08:38:00,
2013-03-23 02:43:00,42.0,31.5,29.97,NE,47,0.0,0.2,66,0.00,BKN,FEW,0.00,WeatherDisplay:10.37,2013-03-23 08:43:00,
2013-03-23 02:48:00,42.0,31.5,29.96,NE,53,2.3,2.3,66,0.00,BKN,FEW,0.00,WeatherDisplay:10.37,2013-03-23 08:48:00,
2013-03-23 02:53:00,42.0,31.1,29.95,ENE,78,3.5,3.5,65,0.00,BKN,FEW,0.00,WeatherDisplay:10.37,2013-03-23 08:53:00,
2013-03-23 02:58:00,41.9,31.4,29.95,East,82,2.3,2.3,66,0.00,BKN,FEW,0.00,WeatherDisplay:10.37,2013-03-23 08:58:00,
2013-03-23 03:03:00,41.9,31.0,29.95,NE,46,3.2,3.2,65,0.00,OVC,FEW,0.00,WeatherDisplay:10.37,2013-03-23 09:03:00,
2013-03-23 03:08:00,41.9,31.4,29.95,ENE,71,2.3,2.3,66,0.00,OVC,FEW,0.00,WeatherDisplay:10.37,2013-03-23 09:08:00,
2013-03-23 03:13:00,41.9,31.4,29.95,NE,41,4.3,4.3,66,0.00,OVC,FEW,0.00,WeatherDisplay:10.37,2013-03-23 09:13:00,
2013-03-23 03:18:00,41.9,31.4,29.95,ENE,72,3.5,3.5,66,0.00,OVC,FEW,0.00,WeatherDisplay:10.37,2013-03-23 09:18:00,
2013-03-23 03:23:00,41.9,31.4,29.96,ENE,78,1.1,1.1,66,0.00,OVC,FEW,0.00,WeatherDisplay:10.37,2013-03-23 09:23:00,
2013-03-23 03:28:00,41.9,31.7,29.96,NE,46,1.1,1.1,67,0.00,OVC,FEW,0.00,WeatherDisplay:10.37,2013-03-23 09:28:00,
2013-03-23 03:33:00,41.9,31.4,29.96,ENE,76,2.3,2.3,66,0.00,OVC,FEW,0.00,WeatherDisplay:10.37,2013-03-23 09:33:00,
2013-03-23 03:38:00,42.0,31.8,29.96,ENE,76,2.3,2.3,67,0.00,OVC,FEW,0.00,WeatherDisplay:10.37,2013-03-23 09:38:00,
2013-03-23 03:43:00,42.0,31.8,29.97,ENE,68,1.1,1.1,67,0.00,OVC,FEW,0.00,WeatherDisplay:10.37,2013-03-23 09:43:00,
2013-03-23 03:48:00,42.0,31.8,29.97,ENE,68,1.1,1.1,67,0.00,OVC,FEW,0.00,WeatherDisplay:10.37,2013-03-23 09:48:00,
2013-03-23 03:53:00,42.0,31.8,29.97,ENE,68,0.0,0.0,67,0.00,OVC,FEW,0.00,WeatherDisplay:10.37,2013-03-23 09:53:00,
2013-03-23 03:58:00,42.0,31.5,29.97,ENE,68,0.0,0.0,66,0.00,OVC,FEW,0.00,WeatherDisplay:10.37,2013-03-23 09:58:00,
2013-03-23 04:03:00,42.0,32.2,29.97,ENE,68,2.1,2.1,68,0.00,OVC,FEW,0.00,WeatherDisplay:10.37,2013-03-23 10:03:00,
2013-03-23 04:08:00,42.0,31.8,29.97,ENE,73,1.1,1.3,67,0.00,OVC,FEW,0.00,WeatherDisplay:10.37,2013-03-23 10:08:00,
2013-03-23 04:13:00,42.0,31.8,29.98,ENE,73,1.1,1.1,67,0.00,OVC,FEW,0.00,WeatherDisplay:10.37,2013-03-23 10:13:00,
2013-03-23 04:18:00,42.0,32.2,29.98,ENE,70,3.5,3.5,68,0.00,OVC,FEW,0.00,WeatherDisplay:10.37,2013-03-23 10:18:00,
2013-03-23 04:23:00,42.0,32.2,29.98,ENE,67,3.5,3.5,68,0.00,OVC,FEW,0.00,WeatherDisplay:10.37,2013-03-23 10:23:00,
2013-03-23 04:28:00,42.0,32.2,29.97,ENE,61,2.3,2.3,68,0.00,OVC,FEW,0.00,WeatherDisplay:10.37,2013-03-23 10:28:00,
2013-03-23 04:34:00,42.0,32.9,29.98,NE,42,1.1,1.1,70,0.00,OVC,FEW,0.00,WeatherDisplay:10.37,2013-03-23 10:34:00,
2013-03-23 04:39:00,42.0,32.6,29.98,NE,49,3.5,3.5,69,0.00,OVC,FEW,0.00,WeatherDisplay:10.37,2013-03-23 10:39:00,
2013-03-23 04:44:00,42.0,32.6,29.99,NNE,32,2.3,3.0,69,0.00,OVC,FEW,0.00,WeatherDisplay:10.37,2013-03-23 10:44:00,
2013-03-23 04:49:00,42.0,32.6,29.99,NNE,30,3.5,3.5,69,0.00,OVC,FEW,0.00,WeatherDisplay:10.37,2013-03-23 10:49:00,
2013-03-23 04:54:00,42.0,32.6,29.99,NNE,30,4.6,4.6,69,0.00,OVC,FEW,0.00,WeatherDisplay:10.37,2013-03-23 10:54:00,
2013-03-23 04:59:00,42.0,33.3,29.99,North,5,3.5,3.5,71,0.00,OVC,FEW,0.00,WeatherDisplay:10.37,2013-03-23 10:59:00,
2013-03-23 05:04:00,42.0,32.9,29.99,NE,45,4.3,4.3,70,0.00,OVC,FEW,0.00,WeatherDisplay:10.37,2013-03-23 11:04:00,
2013-03-23 05:09:00,42.0,32.9,29.99,ENE,69,5.8,5.8,70,0.00,OVC,FEW,0.00,WeatherDisplay:10.37,2013-03-23 11:09:00,
2013-03-23 05:14:00,42.0,33.3,29.98,ENE,73,0.0,0.0,71,0.00,OVC,FEW,0.00,WeatherDisplay:10.37,2013-03-23 11:14:00,
2013-03-23 05:19:00,42.0,33.3,29.98,East,91,6.9,6.9,71,0.00,OVC,FEW,0.00,WeatherDisplay:10.37,2013-03-23 11:19:00,
2013-03-23 05:24:00,41.9,32.5,29.98,NE,39,4.6,4.6,69,0.00,OVC,FEW,0.00,WeatherDisplay:10.37,2013-03-23 11:24:00,
2013-03-23 05:29:00,41.8,32.4,29.99,NNE,30,1.1,1.1,69,0.00,OVC,FEW,0.00,WeatherDisplay:10.37,2013-03-23 11:29:00,
2013-03-23 05:34:00,41.8,32.4,29.99,East,88,4.6,4.6,69,0.00,OVC,FEW,0.00,WeatherDisplay:10.37,2013-03-23 11:34:00,
2013-03-23 05:39:00,41.8,32.4,29.99,NNE,24,2.3,2.3,69,0.00,OVC,FEW,0.00,WeatherDisplay:10.37,2013-03-23 11:39:00,
2013-03-23 05:44:00,41.9,32.8,29.99,ENE,58,1.1,1.1,70,0.00,OVC,FEW,0.00,WeatherDisplay:10.37,2013-03-23 11:44:00,
2013-03-23 05:49:00,41.9,32.8,29.99,NE,38,3.5,3.5,70,0.00,OVC,FEW,0.00,WeatherDisplay:10.37,2013-03-23 11:49:00,
2013-03-23 05:54:00,41.9,33.2,30.00,ENE,64,2.3,2.3,71,0.00,OVC,FEW,0.00,WeatherDisplay:10.37,2013-03-23 11:54:00,
2013-03-23 05:59:00,41.9,33.2,30.00,NE,42,2.3,2.3,71,0.00,OVC,FEW,0.00,WeatherDisplay:10.37,2013-03-23 11:59:00,
2013-03-23 06:04:00,41.9,33.5,30.00,ENE,65,2.1,2.1,72,0.00,OVC,FEW,0.00,WeatherDisplay:10.37,2013-03-23 12:04:00,
2013-03-23 06:09:00,41.9,33.2,30.00,North,355,1.1,1.1,71,0.00,OVC,FEW,0.00,WeatherDisplay:10.37,2013-03-23 12:09:00,
2013-03-23 06:14:00,41.9,33.2,30.01,NE,49,2.3,2.3,71,0.00,OVC,FEW,0.00,WeatherDisplay:10.37,2013-03-23 12:14:00,
2013-03-23 06:19:00,41.9,33.2,30.00,NE,47,0.0,0.1,71,0.00,OVC,FEW,0.00,WeatherDisplay:10.37,2013-03-23 12:19:00,
2013-03-23 06:24:00,41.9,33.2,30.00,ENE,66,4.6,4.6,71,0.00,OVC,FEW,0.00,WeatherDisplay:10.37,2013-03-23 12:24:00,
2013-03-23 06:29:00,41.9,33.2,30.00,ENE,67,3.5,3.5,71,0.00,OVC,FEW,0.00,WeatherDisplay:10.37,2013-03-23 12:29:00,
2013-03-23 06:34:00,41.9,33.2,30.00,ENE,67,1.1,1.1,71,0.00,OVC,FEW,0.00,WeatherDisplay:10.37,2013-03-23 12:34:00,
2013-03-23 06:39:00,41.9,33.2,30.01,ENE,67,0.0,0.0,71,0.00,OVC,FEW,0.00,WeatherDisplay:10.37,2013-03-23 12:39:00,
2013-03-23 06:44:00,41.9,33.2,30.00,ENE,67,1.1,1.1,71,0.00,OVC,FEW,0.00,WeatherDisplay:10.37,2013-03-23 12:44:00,
2013-03-23 06:49:00,42.0,33.3,30.00,East,89,0.0,0.1,71,0.00,OVC,FEW,0.00,WeatherDisplay:10.37,2013-03-23 12:49:00,
2013-03-23 06:54:00,42.0,33.6,30.00,East,82,2.3,2.3,72,0.00,OVC,FEW,0.00,WeatherDisplay:10.37,2013-03-23 12:54:00,
2013-03-23 06:59:00,42.1,33.4,30.00,ENE,74,1.1,1.1,71,0.00,OVC,FEW,0.00,WeatherDisplay:10.37,2013-03-23 12:59:00,
2013-03-23 07:04:00,42.2,33.5,30.00,ENE,71,2.3,2.3,71,0.00,OVC,FEW,0.00,WeatherDisplay:10.37,2013-03-23 13:04:00,
2013-03-23 07:09:00,42.3,33.6,30.01,East,101,2.1,2.1,71,0.00,OVC,FEW,0.00,WeatherDisplay:10.37,2013-03-23 13:09:00,
2013-03-23 07:14:00,42.3,33.2,30.01,ENE,59,4.6,4.6,70,0.00,OVC,FEW,0.00,WeatherDisplay:10.37,2013-03-23 13:14:00,
2013-03-23 07:19:00,42.3,33.2,30.01,NE,51,4.6,4.6,70,0.00,OVC,FEW,0.00,WeatherDisplay:10.37,2013-03-23 13:19:00,
2013-03-23 07:24:00,42.4,33.7,30.01,ENE,61,3.5,3.5,71,0.00,OVC,FEW,0.00,WeatherDisplay:10.37,2013-03-23 13:24:00,
2013-03-23 07:29:00,42.5,33.8,30.01,East,82,3.5,3.5,71,0.00,OVC,FEW,0.00,WeatherDisplay:10.37,2013-03-23 13:29:00,
2013-03-23 07:34:00,42.5,33.4,30.01,NNE,17,2.3,2.3,70,0.00,OVC,FEW,0.00,WeatherDisplay:10.37,2013-03-23 13:34:00,
2013-03-23 07:39:00,42.6,33.5,30.01,ENE,74,4.3,4.3,70,0.00,OVC,FEW,0.00,WeatherDisplay:10.37,2013-03-23 13:39:00,
2013-03-23 07:44:00,42.6,33.5,30.01,ENE,77,3.5,3.5,70,0.00,OVC,FEW,0.00,WeatherDisplay:10.37,2013-03-23 13:44:00,
2013-03-23 07:49:00,42.7,33.6,30.01,ENE,66,4.6,4.6,70,0.00,OVC,FEW,0.00,WeatherDisplay:10.37,2013-03-23 13:49:00,
2013-03-23 07:54:00,42.9,33.8,30.01,NNE,28,5.8,5.8,70,0.00,OVC,FEW,0.00,WeatherDisplay:10.37,2013-03-23 13:54:00,
2013-03-23 07:59:00,43.0,33.9,30.01,NE,34,2.3,2.3,70,0.00,OVC,FEW,0.00,WeatherDisplay:10.37,2013-03-23 13:59:00,
2013-03-23 08:04:00,43.2,34.1,30.01,ENE,69,2.3,2.3,70,0.00,OVC,FEW,0.00,WeatherDisplay:10.37,2013-03-23 14:04:00,
2013-03-23 08:09:00,43.2,33.7,30.01,ENE,76,5.8,5.8,69,0.00,OVC,FEW,0.00,WeatherDisplay:10.37,2013-03-23 14:09:00,
2013-03-23 08:14:00,43.2,33.7,30.01,ENE,76,3.5,3.5,69,0.00,OVC,FEW,0.00,WeatherDisplay:10.37,2013-03-23 14:14:00,
2013-03-23 08:19:00,43.3,34.2,30.00,East,80,5.4,5.4,70,0.00,OVC,FEW,0.00,WeatherDisplay:10.37,2013-03-23 14:19:00,
2013-03-23 08:24:00,43.5,34.0,30.00,ENE,73,8.1,8.1,69,0.00,OVC,FEW,0.00,WeatherDisplay:10.37,2013-03-23 14:24:00,
2013-03-23 08:29:00,43.7,34.2,30.00,NE,56,5.8,5.8,69,0.00,OVC,FEW,0.00,WeatherDisplay:10.37,2013-03-23 14:29:00,
2013-03-23 08:34:00,43.9,34.0,30.00,NE,53,6.9,6.9,68,0.00,OVC,FEW,0.00,WeatherDisplay:10.37,2013-03-23 14:34:00,
2013-03-23 08:39:00,44.0,34.5,30.00,NE,53,5.8,5.8,69,0.00,OVC,FEW,0.00,WeatherDisplay:10.37,2013-03-23 14:39:00,
2013-03-23 08:44:00,44.3,34.4,30.00,ESE,111,4.6,4.6,68,0.00,OVC,FEW,0.00,WeatherDisplay:10.37,2013-03-23 14:44:00,
2013-03-23 08:49:00,44.6,34.7,30.00,NE,54,6.9,6.9,68,0.00,OVC,FEW,0.00,WeatherDisplay:10.37,2013-03-23 14:49:00,
2013-03-23 08:54:00,44.7,34.8,30.00,NE,51,5.8,5.8,68,0.00,OVC,FEW,0.00,WeatherDisplay:10.37,2013-03-23 14:54:00,
2013-03-23 08:59:00,45.0,35.4,30.00,ESE,103,6.9,6.9,69,0.00,OVC,FEW,0.00,WeatherDisplay:10.37,2013-03-23 14:59:00,
2013-03-23 09:05:00,45.2,35.3,30.00,ENE,62,5.8,5.8,68,0.00,BKN,FEW,0.00,WeatherDisplay:10.37,2013-03-23 15:05:00,
2013-03-23 09:10:00,45.5,35.5,30.00,NE,55,2.3,2.3,68,0.00,BKN,FEW,0.00,WeatherDisplay:10.37,2013-03-23 15:10:00,
2013-03-23 09:15:00,46.0,36.0,30.00,NE,34,8.1,8.1,68,0.00,BKN,FEW,0.00,WeatherDisplay:10.37,2013-03-23 15:15:00,
2013-03-23 09:20:00,46.6,36.2,30.00,NNE,22,5.8,5.8,67,0.00,BKN,FEW,0.00,WeatherDisplay:10.37,2013-03-23 15:20:00,
2013-03-23 09:25:00,46.9,36.5,29.99,East,88,8.1,8.1,67,0.00,BKN,FEW,0.00,WeatherDisplay:10.37,2013-03-23 15:25:00,
2013-03-23 09:30:00,46.9,36.9,30.00,NNE,32,8.1,8.1,68,0.00,BKN,FEW,0.00,WeatherDisplay:10.37,2013-03-23 15:30:00,
2013-03-23 09:35:00,47.0,37.7,29.99,NE,54,5.8,5.8,70,0.00,OVC,FEW,0.00,WeatherDisplay:10.37,2013-03-23 15:35:00,
2013-03-23 09:40:00,47.5,37.5,29.99,NE,56,8.1,8.1,68,0.00,OVC,FEW,0.00,WeatherDisplay:10.37,2013-03-23 15:40:00,
2013-03-23 09:45:00,47.7,38.0,30.00,ESE,107,5.8,5.8,69,0.00,OVC,FEW,0.00,WeatherDisplay:10.37,2013-03-23 15:45:00,
2013-03-23 09:50:00,47.9,38.2,30.00,ENE,58,4.6,4.6,69,0.00,OVC,FEW,0.00,WeatherDisplay:10.37,2013-03-23 15:50:00,
2013-03-23 09:55:00,48.1,38.0,30.00,NNW,328,4.6,4.6,68,0.00,OVC,FEW,0.00,WeatherDisplay:10.37,2013-03-23 15:55:00,
2013-03-23 10:00:00,48.2,38.5,29.99,East,82,5.8,5.8,69,0.00,OVC,FEW,0.00,WeatherDisplay:10.37,2013-03-23 16:00:00,
2013-03-23 10:05:00,48.4,38.7,30.00,NE,56,4.6,4.6,69,0.00,OVC,FEW,0.00,WeatherDisplay:10.37,2013-03-23 16:05:00,
2013-03-23 10:10:00,48.6,38.9,30.00,ENE,77,4.3,4.3,69,0.00,OVC,FEW,0.00,WeatherDisplay:10.37,2013-03-23 16:10:00,
2013-03-23 10:15:00,49.0,38.9,30.00,ENE,63,8.1,8.1,68,0.00,OVC,FEW,0.00,WeatherDisplay:10.37,2013-03-23 16:15:00,
2013-03-23 10:20:00,49.5,39.7,29.99,East,82,2.3,2.3,69,0.00,OVC,FEW,0.00,WeatherDisplay:10.37,2013-03-23 16:20:00,
2013-03-23 10:25:00,50.2,39.7,29.99,ESE,107,8.1,8.1,67,0.00,OVC,FEW,0.00,WeatherDisplay:10.37,2013-03-23 16:25:00,
2013-03-23 10:30:00,50.5,39.9,29.99,NE,51,5.8,5.8,67,0.00,OVC,FEW,0.00,WeatherDisplay:10.37,2013-03-23 16:30:00,
2013-03-23 10:35:00,50.6,39.7,29.99,ESE,113,8.1,8.1,66,0.00,OVC,FEW,0.00,WeatherDisplay:10.37,2013-03-23 16:35:00,
2013-03-23 10:40:00,50.6,40.0,29.99,ENE,59,5.8,5.8,67,0.00,OVC,FEW,0.00,WeatherDisplay:10.37,2013-03-23 16:40:00,
2013-03-23 10:45:00,50.9,39.9,29.99,NE,52,9.2,9.2,66,0.00,OVC,FEW,0.00,WeatherDisplay:10.37,2013-03-23 16:45:00,
2013-03-23 10:50:00,51.1,40.1,29.99,NE,53,9.2,9.2,66,0.00,OVC,FEW,0.00,WeatherDisplay:10.37,2013-03-23 16:50:00,
2013-03-23 10:55:00,51.5,40.5,29.98,ENE,78,9.2,9.2,66,0.00,OVC,FEW,0.00,WeatherDisplay:10.37,2013-03-23 16:55:00,
2013-03-23 11:00:00,51.8,40.8,29.98,ENE,61,8.1,8.1,66,0.00,OVC,FEW,0.00,WeatherDisplay:10.37,2013-03-23 17:00:00,
2013-03-23 11:05:00,52.0,41.0,29.98,SE,132,9.2,9.2,66,0.00,OVC,FEW,0.00,WeatherDisplay:10.37,2013-03-23 17:05:00,
2013-03-23 11:10:00,52.2,41.6,29.98,East,94,9.2,9.2,67,0.00,OVC,FEW,0.00,WeatherDisplay:10.37,2013-03-23 17:10:00,
2013-03-23 11:15:00,52.2,40.8,29.98,NNE,31,6.9,6.9,65,0.00,OVC,FEW,0.00,WeatherDisplay:10.37,2013-03-23 17:15:00,
2013-03-23 11:20:00,52.6,41.6,29.97,ESE,117,6.9,6.9,66,0.00,OVC,FEW,0.00,WeatherDisplay:10.37,2013-03-23 17:20:00,
2013-03-23 11:25:00,53.4,41.9,29.97,ENE,70,5.8,5.8,65,0.00,OVC,FEW,0.00,WeatherDisplay:10.37,2013-03-23 17:25:00,
2013-03-23 11:30:00,54.2,41.9,29.97,NNE,26,5.8,5.8,63,0.00,OVC,FEW,0.00,WeatherDisplay:10.37,2013-03-23 17:30:00,
2013-03-23 11:35:00,54.5,42.6,29.97,NNW,343,9.2,9.2,64,0.00,OVC,FEW,0.00,WeatherDisplay:10.37,2013-03-23 17:35:00,
2013-03-23 11:40:00,54.5,41.7,29.96,North,360,8.1,8.1,62,0.00,OVC,FEW,0.00,WeatherDisplay:10.37,2013-03-23 17:40:00,
2013-03-23 11:45:00,54.9,42.5,29.96,East,84,3.5,3.5,63,0.00,OVC,FEW,0.00,WeatherDisplay:10.37,2013-03-23 17:45:00,
2013-03-23 11:50:00,55.1,42.3,29.96,ENE,66,8.1,8.1,62,0.00,OVC,FEW,0.00,WeatherDisplay:10.37,2013-03-23 17:50:00,
2013-03-23 11:55:00,55.1,42.3,29.96,ENE,61,3.5,3.5,62,0.00,OVC,FEW,0.00,WeatherDisplay:10.37,2013-03-23 17:55:00,
2013-03-23 12:00:00,55.7,42.5,29.95,East,90,5.8,5.8,61,0.00,OVC,FEW,0.00,WeatherDisplay:10.37,2013-03-23 18:00:00,
2013-03-23 12:05:00,55.7,42.5,29.95,East,98,5.8,5.8,61,0.00,OVC,FEW,0.00,WeatherDisplay:10.37,2013-03-23 18:05:00,
2013-03-23 12:10:00,55.4,42.6,29.95,ENE,74,8.1,8.1,62,0.00,OVC,FEW,0.00,WeatherDisplay:10.37,2013-03-23 18:10:00,
2013-03-23 12:15:00,55.4,42.6,29.95,SE,146,2.3,2.3,62,0.00,OVC,FEW,0.00,WeatherDisplay:10.37,2013-03-23 18:15:00,
2013-03-23 12:20:00,55.9,43.1,29.94,NE,51,3.5,4.7,62,0.00,OVC,FEW,0.00,WeatherDisplay:10.37,2013-03-23 18:20:00,
2013-03-23 12:25:00,56.0,42.7,29.93,NE,54,8.1,8.1,61,0.00,OVC,FEW,0.00,WeatherDisplay:10.37,2013-03-23 18:25:00,
2013-03-23 12:30:00,56.1,42.8,29.94,ENE,70,5.8,5.8,61,0.00,OVC,FEW,0.00,WeatherDisplay:10.37,2013-03-23 18:30:00,
2013-03-23 12:35:00,56.2,42.9,29.94,North,360,8.1,8.1,61,0.00,OVC,FEW,0.00,WeatherDisplay:10.37,2013-03-23 18:35:00,
2013-03-23 12:40:00,56.4,43.5,29.93,NE,39,8.1,8.1,62,0.00,OVC,FEW,0.00,WeatherDisplay:10.37,2013-03-23 18:40:00,
2013-03-23 12:45:00,56.3,42.6,29.93,NE,49,8.1,8.1,60,0.00,OVC,FEW,0.00,WeatherDisplay:10.37,2013-03-23 18:45:00,
2013-03-23 12:51:00,56.2,43.3,29.92,NNE,22,8.1,8.1,62,0.00,OVC,FEW,0.00,WeatherDisplay:10.37,2013-03-23 18:51:00,
2013-03-23 12:56:00,56.4,43.5,29.91,ESE,105,8.1,8.1,62,0.00,OVC,FEW,0.00,WeatherDisplay:10.37,2013-03-23 18:56:00,
2013-03-23 13:01:00,56.7,43.8,29.91,NNE,27,8.1,8.1,62,0.00,OVC,FEW,0.00,WeatherDisplay:10.37,2013-03-23 19:01:00,
2013-03-23 13:06:00,56.7,43.4,29.91,ESE,119,8.1,8.1,61,0.00,OVC,FEW,0.00,WeatherDisplay:10.37,2013-03-23 19:06:00,
2013-03-23 13:11:00,56.8,43.5,29.91,ESE,105,9.2,9.2,61,0.00,OVC,FEW,0.00,WeatherDisplay:10.37,2013-03-23 19:11:00,
2013-03-23 13:16:00,57.0,43.2,29.91,SE,134,8.1,8.1,60,0.00,OVC,FEW,0.00,WeatherDisplay:10.37,2013-03-23 19:16:00,
2013-03-23 13:21:00,57.4,43.2,29.91,NE,43,8.1,8.1,59,0.00,OVC,FEW,0.00,WeatherDisplay:10.37,2013-03-23 19:21:00,
2013-03-23 13:26:00,57.5,43.7,29.91,ENE,70,8.1,8.1,60,0.00,OVC,FEW,0.00,WeatherDisplay:10.37,2013-03-23 19:26:00,
2013-03-23 13:31:00,57.6,43.4,29.91,East,84,8.1,8.1,59,0.00,OVC,FEW,0.00,WeatherDisplay:10.37,2013-03-23 19:31:00,
2013-03-23 13:36:00,57.7,43.5,29.91,East,88,6.9,6.9,59,0.00,OVC,FEW,0.00,WeatherDisplay:10.37,2013-03-23 19:36:00,
2013-03-23 13:41:00,58.1,42.9,29.90,East,80,3.5,3.5,57,0.00,OVC,FEW,0.00,WeatherDisplay:10.37,2013-03-23 19:41:00,
2013-03-23 13:47:00,58.3,43.1,29.90,ENE,72,3.5,3.5,57,0.00,OVC,FEW,0.00,WeatherDisplay:10.37,2013-03-23 19:47:00,
2013-03-23 13:52:00,58.3,43.6,29.89,ENE,58,8.1,8.1,58,0.00,OVC,FEW,0.00,WeatherDisplay:10.37,2013-03-23 19:52:00,
2013-03-23 13:57:00,58.4,42.8,29.90,NNE,28,5.8,5.8,56,0.00,OVC,FEW,0.00,WeatherDisplay:10.37,2013-03-23 19:57:00,
2013-03-23 14:02:00,58.1,42.9,29.90,ENE,68,6.9,6.9,57,0.00,BKN,FEW,0.00,WeatherDisplay:10.37,2013-03-23 20:02:00,
2013-03-23 14:07:00,57.9,43.2,29.90,ENE,57,8.1,8.1,58,0.00,BKN,FEW,0.00,WeatherDisplay:10.37,2013-03-23 20:07:00,
2013-03-23 14:12:00,58.1,42.9,29.89,NE,40,8.1,8.1,57,0.00,BKN,FEW,0.00,WeatherDisplay:10.37,2013-03-23 20:12:00,
2013-03-23 14:17:00,58.0,42.4,29.88,NE,55,8.1,8.1,56,0.00,BKN,FEW,0.00,WeatherDisplay:10.37,2013-03-23 20:17:00,
2013-03-23 14:22:00,57.8,43.1,29.88,ENE,77,4.6,4.8,58,0.00,BKN,FEW,0.00,WeatherDisplay:10.37,2013-03-23 20:22:00,
2013-03-23 14:27:00,57.8,43.1,29.88,East,80,8.1,8.1,58,0.00,BKN,FEW,0.00,WeatherDisplay:10.37,2013-03-23 20:27:00,
2013-03-23 14:32:00,57.5,42.4,29.88,ENE,77,8.1,8.1,57,0.00,BKN,FEW,0.00,WeatherDisplay:10.37,2013-03-23 20:32:00,
2013-03-23 14:37:00,57.7,43.0,29.87,ENE,70,5.8,5.8,58,0.00,BKN,FEW,0.00,WeatherDisplay:10.37,2013-03-23 20:37:00,
2013-03-23 14:42:00,57.7,42.6,29.86,NE,36,5.8,5.8,57,0.00,BKN,FEW,0.00,WeatherDisplay:10.37,2013-03-23 20:42:00,
2013-03-23 14:47:00,57.7,42.6,29.86,ENE,70,9.2,9.2,57,0.00,BKN,FEW,0.00,WeatherDisplay:10.37,2013-03-23 20:47:00,
2013-03-23 14:52:00,57.6,42.5,29.86,East,89,11.5,11.5,57,0.00,BKN,FEW,0.00,WeatherDisplay:10.37,2013-03-23 20:52:00,
2013-03-23 14:57:00,57.5,42.8,29.86,East,81,8.1,8.1,58,0.00,BKN,FEW,0.00,WeatherDisplay:10.37,2013-03-23 20:57:00,
2013-03-23 15:02:00,57.6,42.5,29.86,ENE,71,9.6,9.6,57,0.00,BKN,FEW,0.00,WeatherDisplay:10.37,2013-03-23 21:02:00,
2013-03-23 15:07:00,57.2,42.1,29.86,NE,54,10.4,10.4,57,0.00,BKN,FEW,0.00,WeatherDisplay:10.37,2013-03-23 21:07:00,
2013-03-23 15:12:00,57.1,42.0,29.85,NE,55,10.4,10.4,57,0.00,BKN,FEW,0.00,WeatherDisplay:10.37,2013-03-23 21:12:00,
2013-03-23 15:17:00,57.3,42.6,29.85,ESE,109,9.2,9.2,58,0.00,BKN,FEW,0.00,WeatherDisplay:10.37,2013-03-23 21:17:00,
2013-03-23 15:22:00,57.3,42.6,29.85,East,99,9.2,9.2,58,0.00,BKN,FEW,0.00,WeatherDisplay:10.37,2013-03-23 21:22:00,
2013-03-23 15:27:00,57.4,42.7,29.85,ENE,59,5.8,5.8,58,0.00,BKN,FEW,0.00,WeatherDisplay:10.37,2013-03-23 21:27:00,
2013-03-23 15:32:00,57.3,42.6,29.85,East,93,8.1,8.1,58,0.00,BKN,FEW,0.00,WeatherDisplay:10.37,2013-03-23 21:32:00,
2013-03-23 15:37:00,57.3,42.2,29.85,ENE,66,12.7,12.7,57,0.00,BKN,FEW,0.00,WeatherDisplay:10.37,2013-03-23 21:37:00,
2013-03-23 15:42:00,57.2,42.1,29.85,NE,51,9.2,9.2,57,0.00,BKN,FEW,0.00,WeatherDisplay:10.37,2013-03-23 21:42:00,
2013-03-23 15:47:00,57.0,42.4,29.85,NE,55,8.1,8.1,58,0.00,BKN,FEW,0.00,WeatherDisplay:10.37,2013-03-23 21:47:00,
2013-03-23 15:52:00,56.9,42.3,29.84,NE,49,5.8,5.8,58,0.00,BKN,FEW,0.00,WeatherDisplay:10.37,2013-03-23 21:52:00,
2013-03-23 15:58:00,56.8,42.2,29.84,ENE,69,10.4,10.4,58,0.00,BKN,FEW,0.00,WeatherDisplay:10.37,2013-03-23 21:58:00,
2013-03-23 16:03:00,56.8,42.2,29.84,East,85,8.1,8.1,58,0.00,BKN,FEW,0.00,WeatherDisplay:10.37,2013-03-23 22:03:00,
2013-03-23 16:08:00,56.7,42.5,29.84,ENE,58,3.5,3.5,59,0.00,BKN,FEW,0.00,WeatherDisplay:10.37,2013-03-23 22:08:00,
2013-03-23 16:13:00,56.8,42.6,29.84,NE,41,8.1,8.1,59,0.00,BKN,FEW,0.00,WeatherDisplay:10.37,2013-03-23 22:13:00,
2013-03-23 16:18:00,56.7,42.1,29.84,East,82,8.1,8.1,58,0.00,BKN,FEW,0.00,WeatherDisplay:10.37,2013-03-23 22:18:00,
2013-03-23 16:23:00,56.5,42.3,29.84,NE,42,6.9,6.9,59,0.00,BKN,FEW,0.00,WeatherDisplay:10.37,2013-03-23 22:23:00,
2013-03-23 16:28:00,56.4,42.2,29.84,East,86,9.2,9.2,59,0.00,BKN,FEW,0.00,WeatherDisplay:10.37,2013-03-23 22:28:00,
2013-03-23 16:33:00,56.3,42.6,29.83,ENE,70,4.6,4.6,60,0.00,BKN,FEW,0.00,WeatherDisplay:10.37,2013-03-23 22:33:00,
2013-03-23 16:38:00,56.2,42.1,29.83,ENE,57,5.8,5.8,59,0.00,BKN,FEW,0.00,WeatherDisplay:10.37,2013-03-23 22:38:00,
2013-03-23 16:43:00,56.2,42.1,29.83,ESE,119,8.1,8.1,59,0.00,BKN,FEW,0.00,WeatherDisplay:10.37,2013-03-23 22:43:00,
2013-03-23 16:48:00,56.1,42.0,29.83,ENE,74,3.5,3.5,59,0.00,BKN,FEW,0.00,WeatherDisplay:10.37,2013-03-23 22:48:00,
2013-03-23 16:53:00,56.0,42.7,29.83,East,90,3.5,3.5,61,0.00,BKN,FEW,0.00,WeatherDisplay:10.37,2013-03-23 22:53:00,
2013-03-23 16:58:00,55.9,41.8,29.82,NE,55,8.1,8.1,59,0.00,BKN,FEW,0.00,WeatherDisplay:10.37,2013-03-23 22:58:00,
2013-03-23 17:03:00,55.8,42.1,29.81,ENE,73,10.7,10.7,60,0.00,OVC,FEW,0.00,WeatherDisplay:10.37,2013-03-23 23:03:00,
2013-03-23 17:08:00,55.6,41.9,29.81,ENE,59,9.2,9.2,60,0.00,OVC,FEW,0.00,WeatherDisplay:10.37,2013-03-23 23:08:00,
2013-03-23 17:13:00,55.5,41.8,29.81,ENE,71,11.5,11.5,60,0.00,OVC,FEW,0.00,WeatherDisplay:10.37,2013-03-23 23:13:00,
2013-03-23 17:18:00,55.3,42.1,29.81,NE,51,8.1,8.1,61,0.00,OVC,FEW,0.00,WeatherDisplay:10.37,2013-03-23 23:18:00,
2013-03-23 17:23:00,55.1,42.3,29.80,North,355,3.5,3.5,62,0.00,OVC,FEW,0.00,WeatherDisplay:10.37,2013-03-23 23:23:00,
2013-03-23 17:28:00,54.8,42.4,29.81,ENE,71,5.8,5.8,63,0.00,OVC,FEW,0.00,WeatherDisplay:10.37,2013-03-23 23:28:00,
2013-03-23 17:33:00,54.6,43.1,29.80,East,79,2.3,2.3,65,0.00,OVC,FEW,0.00,WeatherDisplay:10.37,2013-03-23 23:33:00,
2013-03-23 17:38:00,54.3,43.2,29.81,East,84,5.8,5.8,66,0.00,OVC,FEW,0.00,WeatherDisplay:10.37,2013-03-23 23:38:00,
2013-03-23 17:43:00,54.0,42.9,29.82,ENE,61,4.6,4.6,66,0.00,OVC,FEW,0.00,WeatherDisplay:10.37,2013-03-23 23:43:00,
2013-03-23 17:48:00,54.0,43.7,29.81,ENE,78,6.9,6.9,68,0.00,OVC,FEW,0.00,WeatherDisplay:10.37,2013-03-23 23:48:00,
2013-03-23 17:53:00,53.7,43.0,29.81,East,87,8.1,8.1,67,0.00,OVC,FEW,0.00,WeatherDisplay:10.37,2013-03-23 23:53:00,
2013-03-23 17:58:00,53.4,43.5,29.81,NE,55,6.9,6.9,69,0.00,OVC,FEW,0.00,WeatherDisplay:10.37,2013-03-23 23:58:00,
2013-03-23 18:03:00,53.2,44.0,29.81,ESE,116,3.5,3.5,71,0.00,OVC,FEW,0.00,WeatherDisplay:10.37,2013-03-24 00:03:00,
2013-03-23 18:08:00,53.0,44.2,29.82,ENE,74,6.9,6.9,72,0.01,RA,FEW,0.01,WeatherDisplay:10.37,2013-03-24 00:08:00,
2013-03-23 18:13:00,52.6,44.5,29.82,ENE,76,0.0,0.0,74,0.01,RA,FEW,0.01,WeatherDisplay:10.37,2013-03-24 00:13:00,
2013-03-23 18:18:00,52.3,44.6,29.81,East,87,5.8,5.8,75,0.01,OVC,FEW,0.01,WeatherDisplay:10.37,2013-03-24 00:18:00,
2013-03-23 18:23:00,52.0,44.7,29.81,ENE,68,3.5,3.5,76,0.01,-DZ,FEW,0.01,WeatherDisplay:10.37,2013-03-24 00:23:00,
2013-03-23 18:28:00,51.7,45.4,29.81,North,5,3.5,3.5,79,0.01,-DZ,FEW,0.01,WeatherDisplay:10.37,2013-03-24 00:28:00,
2013-03-23 18:33:00,51.2,46.2,29.81,North,5,1.1,1.1,83,0.02,-DZ,FEW,0.02,WeatherDisplay:10.37,2013-03-24 00:33:00,
2013-03-23 18:38:00,50.8,46.5,29.80,NNE,16,1.1,1.1,85,0.02,-DZ,FEW,0.02,WeatherDisplay:10.37,2013-03-24 00:38:00,
2013-03-23 18:43:00,50.2,45.9,29.80,ENE,74,2.3,0.0,85,0.03,-DZ,FEW,0.03,WeatherDisplay:10.37,2013-03-24 00:43:00,
2013-03-23 18:48:00,49.8,45.8,29.80,ENE,63,4.3,4.3,86,0.03,-DZ,FEW,0.03,WeatherDisplay:10.37,2013-03-24 00:48:00,
2013-03-23 18:53:00,49.5,45.5,29.80,ENE,63,8.1,8.1,86,0.03,-DZ,FEW,0.03,WeatherDisplay:10.37,2013-03-24 00:53:00,
2013-03-23 18:58:00,49.2,45.2,29.79,ENE,68,10.4,10.4,86,0.03,-DZ,FEW,0.03,WeatherDisplay:10.37,2013-03-24 00:58:00,
2013-03-23 19:03:00,49.1,45.4,29.78,ENE,78,9.2,9.2,87,0.03,-RA,FEW,0.03,WeatherDisplay:10.37,2013-03-24 01:03:00,
2013-03-23 19:08:00,49.1,45.1,29.77,ENE,76,10.4,10.4,86,0.02,-RA,FEW,0.03,WeatherDisplay:10.37,2013-03-24 01:08:00,
2013-03-23 19:13:00,49.0,45.0,29.77,ENE,76,11.5,11.5,86,0.02,-RA,FEW,0.03,WeatherDisplay:10.37,2013-03-24 01:13:00,
2013-03-23 19:18:00,49.0,45.0,29.77,East,86,8.1,8.1,86,0.02,-RA,FEW,0.03,WeatherDisplay:10.37,2013-03-24 01:18:00,
2013-03-23 19:23:00,49.0,45.0,29.77,SE,134,11.5,11.5,86,0.02,BKN,FEW,0.03,WeatherDisplay:10.37,2013-03-24 01:23:00,
2013-03-23 19:28:00,48.9,44.9,29.77,ENE,71,8.1,8.1,86,0.02,BKN,FEW,0.03,WeatherDisplay:10.37,2013-03-24 01:28:00,
2013-03-23 19:33:00,48.8,44.8,29.77,ENE,64,19.6,19.6,86,0.01,BKN,FEW,0.03,WeatherDisplay:10.37,2013-03-24 01:33:00,
2013-03-23 19:39:00,48.8,44.8,29.77,NE,42,8.1,8.1,86,0.01,BKN,FEW,0.03,WeatherDisplay:10.37,2013-03-24 01:39:00,
2013-03-23 19:44:00,48.8,44.8,29.77,NE,55,8.1,8.1,86,0.00,BKN,FEW,0.03,WeatherDisplay:10.37,2013-03-24 01:44:00,
2013-03-23 19:49:00,48.8,44.8,29.76,ESE,103,8.1,9.6,86,0.00,BKN,FEW,0.03,WeatherDisplay:10.37,2013-03-24 01:49:00,
2013-03-23 19:54:00,48.7,44.7,29.76,NE,45,2.3,2.3,86,0.00,BKN,FEW,0.03,WeatherDisplay:10.37,2013-03-24 01:54:00,
2013-03-23 19:59:00,48.7,44.7,29.76,NE,55,5.8,5.8,86,0.00,BKN,FEW,0.03,WeatherDisplay:10.37,2013-03-24 01:59:00,
2013-03-23 20:04:00,48.7,45.0,29.77,ENE,76,3.5,3.5,87,0.00,BKN,FEW,0.03,WeatherDisplay:10.37,2013-03-24 02:04:00,
2013-03-23 20:09:00,48.5,44.8,29.76,ESE,107,5.8,5.8,87,0.00,BKN,FEW,0.04,WeatherDisplay:10.37,2013-03-24 02:09:00,
2013-03-23 20:14:00,48.4,45.0,29.75,ENE,78,6.9,6.9,88,0.01,RA,FEW,0.04,WeatherDisplay:10.37,2013-03-24 02:14:00,
2013-03-23 20:19:00,48.3,44.9,29.74,ESE,123,8.1,8.1,88,0.01,-RA,FEW,0.04,WeatherDisplay:10.37,2013-03-24 02:19:00,
2013-03-23 20:24:00,48.2,44.8,29.75,East,100,3.2,3.2,88,0.01,-RA,FEW,0.04,WeatherDisplay:10.37,2013-03-24 02:24:00,
2013-03-23 20:29:00,48.2,45.1,29.75,ENE,70,3.5,3.5,89,0.01,-RA,FEW,0.04,WeatherDisplay:10.37,2013-03-24 02:29:00,
2013-03-23 20:34:00,48.2,44.8,29.76,ENE,76,3.5,3.5,88,0.01,-RA,FEW,0.04,WeatherDisplay:10.37,2013-03-24 02:34:00,
2013-03-23 20:39:00,48.1,45.0,29.77,ENE,74,3.5,3.5,89,0.01,-RA,FEW,0.04,WeatherDisplay:10.37,2013-03-24 02:39:00,
2013-03-23 20:44:00,48.1,44.7,29.77,ENE,74,0.0,0.0,88,0.01,-RA,FEW,0.04,WeatherDisplay:10.37,2013-03-24 02:44:00,
2013-03-23 20:49:00,48.1,45.0,29.77,ENE,74,2.3,2.3,89,0.01,-RA,FEW,0.04,WeatherDisplay:10.37,2013-03-24 02:49:00,
2013-03-23 20:54:00,48.0,45.2,29.77,NE,36,1.1,1.1,90,0.01,-RA,FEW,0.04,WeatherDisplay:10.37,2013-03-24 02:54:00,
2013-03-23 20:59:00,47.9,45.1,29.76,NE,39,1.1,0.0,90,0.01,-RA,FEW,0.04,WeatherDisplay:10.37,2013-03-24 02:59:00,
2013-03-23 21:04:00,47.9,45.1,29.77,NE,44,0.0,0.0,90,0.01,CLR,FEW,0.04,WeatherDisplay:10.37,2013-03-24 03:04:00,
2013-03-23 21:09:00,47.9,45.1,29.76,NE,44,0.0,0.0,90,0.00,CLR,FEW,0.04,WeatherDisplay:10.37,2013-03-24 03:09:00,
2013-03-23 21:14:00,47.9,45.4,29.76,NE,44,0.0,0.0,91,0.00,CLR,FEW,0.04,WeatherDisplay:10.37,2013-03-24 03:14:00,
2013-03-23 21:19:00,48.0,45.5,29.77,NE,44,0.0,0.0,91,0.00,CLR,FEW,0.04,WeatherDisplay:10.37,2013-03-24 03:19:00,
2013-03-23 21:24:00,48.0,45.5,29.77,NE,44,0.0,0.0,91,0.00,FEW,,0.04,WeatherDisplay:10.37,2013-03-24 03:24:00,
2013-03-23 21:29:00,47.9,45.7,29.78,NE,44,0.0,0.0,92,0.01,RA,FEW,0.05,WeatherDisplay:10.37,2013-03-24 03:29:00,
2013-03-23 21:34:00,47.8,45.6,29.79,NE,44,0.0,0.0,92,0.01,RA,FEW,0.05,WeatherDisplay:10.37,2013-03-24 03:34:00,
2013-03-23 21:39:00,47.6,45.7,29.79,NE,44,0.0,0.0,93,0.02,RA,FEW,0.06,WeatherDisplay:10.37,2013-03-24 03:39:00,
2013-03-23 21:44:00,47.6,45.7,29.78,NE,44,0.0,0.0,93,0.03,RA,FEW,0.07,WeatherDisplay:10.37,2013-03-24 03:44:00,
2013-03-23 21:49:00,47.5,45.6,29.78,NE,42,1.1,1.1,93,0.04,RA,FEW,0.08,WeatherDisplay:10.37,2013-03-24 03:49:00,
2013-03-23 21:54:00,47.4,45.8,29.78,NE,42,1.1,1.1,94,0.05,-DZ,FEW,0.09,WeatherDisplay:10.37,2013-03-24 03:54:00,
2013-03-23 21:59:00,47.4,45.8,29.78,NE,42,0.0,0.0,94,0.05,-DZ,FEW,0.09,WeatherDisplay:10.37,2013-03-24 03:59:00,
2013-03-23 22:00:00,47.4,45.8,29.78,NE,42,0.0,0.0,94,0.05,-DZ,FEW,0.09,WeatherDisplay:10.37,2013-03-24 04:00:00,
2013-03-23 22:05:00,47.4,45.8,29.77,NE,42,0.0,0.0,94,0.05,-DZ,FEW,0.09,WeatherDisplay:10.37,2013-03-24 04:05:00,
2013-03-23 22:10:00,47.3,45.7,29.77,NE,42,0.0,0.4,94,0.06,-DZ,FEW,0.10,WeatherDisplay:10.37,2013-03-24 04:10:00,
2013-03-23 22:15:00,47.4,45.8,29.76,NE,42,0.0,0.0,94,0.06,-DZ,FEW,0.10,WeatherDisplay:10.37,2013-03-24 04:15:00,
2013-03-23 22:20:00,47.4,46.0,29.76,NE,42,0.0,0.0,95,0.07,-DZ,FEW,0.11,WeatherDisplay:10.37,2013-03-24 04:20:00,
2013-03-23 22:25:00,47.4,46.0,29.76,NE,42,0.0,0.0,95,0.07,-DZ,FEW,0.11,WeatherDisplay:10.37,2013-03-24 04:25:00,
2013-03-23 22:30:00,47.4,46.0,29.76,NE,42,0.0,0.0,95,0.07,-DZ,FEW,0.12,WeatherDisplay:10.37,2013-03-24 04:30:00,
2013-03-23 22:35:00,47.3,45.9,29.75,NE,42,0.0,0.0,95,0.07,-RA,FEW,0.13,WeatherDisplay:10.37,2013-03-24 04:35:00,
2013-03-23 22:40:00,47.3,45.9,29.75,NE,42,0.0,0.0,95,0.07,-RA,FEW,0.13,WeatherDisplay:10.37,2013-03-24 04:40:00,
2013-03-23 22:45:00,47.2,45.8,29.75,NE,42,0.0,0.0,95,0.06,-RA,FEW,0.14,WeatherDisplay:10.37,2013-03-24 04:45:00,
2013-03-23 22:50:00,47.2,45.8,29.75,NE,42,2.3,2.3,95,0.06,-RA,FEW,0.14,WeatherDisplay:10.37,2013-03-24 04:50:00,
2013-03-23 22:55:00,47.2,45.8,29.75,NE,42,1.1,1.1,95,0.06,-RA,FEW,0.15,WeatherDisplay:10.37,2013-03-24 04:55:00,
2013-03-23 23:00:00,47.1,45.7,29.74,NE,42,0.0,0.0,95,0.06,-RA,FEW,0.00,WeatherDisplay:10.37,2013-03-24 05:00:00,
2013-03-23 23:06:00,47.1,45.7,29.74,ENE,66,2.3,2.3,95,0.06,-RA,FEW,0.00,WeatherDisplay:10.37,2013-03-24 05:06:00,
2013-03-23 23:11:00,47.1,45.7,29.74,East,81,3.5,3.5,95,0.06,-RA,FEW,0.01,WeatherDisplay:10.37,2013-03-24 05:11:00,
2013-03-23 23:16:00,47.1,46.0,29.73,ENE,59,2.3,2.3,96,0.06,-RA,FEW,0.01,WeatherDisplay:10.37,2013-03-24 05:16:00,
2013-03-23 23:21:00,47.1,46.0,29.73,East,94,2.3,2.3,96,0.06,-RA,FEW,0.02,WeatherDisplay:10.37,2013-03-24 05:21:00,
2013-03-23 23:26:00,47.1,46.0,29.74,ENE,77,2.3,2.3,96,0.06,-RA,FEW,0.02,WeatherDisplay:10.37,2013-03-24 05:26:00,
2013-03-23 23:31:00,47.1,46.0,29.73,ESE,111,2.3,2.3,96,0.05,-RA,FEW,0.02,WeatherDisplay:10.37,2013-03-24 05:31:00,
2013-03-23 23:36:00,47.2,46.1,29.73,ESE,111,3.5,3.5,96,0.05,-RA,FEW,0.02,WeatherDisplay:10.37,2013-03-24 05:36:00,
2013-03-23 23:41:00,47.2,46.1,29.72,ESE,117,1.1,0.0,96,0.05,-RA,FEW,0.03,WeatherDisplay:10.37,2013-03-24 05:41:00,
2013-03-23 23:46:00,47.3,46.2,29.72,SE,130,0.0,0.7,96,0.06,-RA,FEW,0.04,WeatherDisplay:10.37,2013-03-24 05:46:00,
2013-03-23 23:51:00,47.4,46.3,29.72,ENE,58,3.5,3.5,96,0.05,-RA,FEW,0.04,WeatherDisplay:10.37,2013-03-24 05:51:00,
2013-03-23 23:57:00,47.4,46.3,29.71,SSE,162,1.1,1.1,96,0.04,-RA,FEW,0.04,WeatherDisplay:10.37,2013-03-24 05:57:00,